Weather History for MMMX - March, 2011

Change the Weather History Date:

Sunday, March 6, 2011

  Actual Average Record
Temperature  
Mean Temperature 64 °F -  
Max Temperature 75 °F 76 °F 82 °F (1998)
Min Temperature 53 °F 47 °F 37 °F (2001)
Degree Days  
Heating Degree Days 1    
Growing Degree Days 14 (Base 50)    
Moisture  
Dew Point 44 °F    
Average Humidity 54    
Maximum Humidity 72    
Minimum Humidity 25    
Precipitation  
Precipitation 0.00 in - - ()
Sea Level Pressure  
Sea Level Pressure 30.15 in    
Wind  
Wind Speed 6 mph ()    
Max Wind Speed 26 mph    
Max Gust Speed 23 mph    
Visibility 7.7 miles    
Events Rain , Thunderstorm    
Averages and records for this station are not official NWS values.
T = Trace of Precipitation, MM = Missing Value Source: Averaged Metar Reports

Daily Weather History Graph

Daily Weather History Graph

Search for Another Location

Airport or City:

Trip Planner

Search our weather history database for the weather conditions in past years. The results will help you decide how hot, cold, wet, or windy it might be!

Date:

Astronomy

Mar. 06, 2011 Rise Set
Actual Time 6:52 AM CST 6:43 PM CST
Civil Twilight 6:30 AM CST 7:05 PM CST
Nautical Twilight 6:04 AM CST 7:30 PM CST
Astronomical Twilight 5:39 AM CST 7:56 PM CST
Moon 7:38 AM CST (3/6) 8:20 PM CST (3/6)
Length of Visible Light 12h 35m
Length of Day
11h 51m
Waxing Crescent, 3% of the Moon is Illuminated
Mar 6
Waxing Crescent
Mar 12
First Quarter
Mar 19
Full
Mar 26
Last Quarter
Apr 3
New

Hourly Weather History & Observations

Time (CST) Temp. Dew Point Humidity Pressure Visibility Wind Dir Wind Speed Gust Speed Precip Events Conditions
12:46 AM 57.2 °F 46.4 °F 67% 30.32 in 7.0 mi North 4.6 mph - N/A   Mostly Cloudy
1:45 AM 55.4 °F 44.6 °F 67% 30.30 in 7.0 mi North 5.8 mph - N/A   Mostly Cloudy
2:46 AM 55.4 °F 46.4 °F 72% 29.73 in 10.0 mi NNW 6.9 mph - N/A   Mostly Cloudy
3:54 AM 55.4 °F 44.6 °F 67% 30.28 in 10.0 mi NNW 5.8 mph - N/A   Mostly Cloudy
4:43 AM 55.4 °F 44.6 °F 67% 30.28 in 12.0 mi North 9.2 mph - N/A   Mostly Cloudy
5:49 AM 53.6 °F 42.8 °F 67% 29.80 in 12.0 mi NW 6.9 mph - N/A   Mostly Cloudy
6:18 AM 53.6 °F 42.8 °F 67% 30.30 in 15.0 mi NNW 5.8 mph - N/A   Mostly Cloudy
6:44 AM 53.6 °F 42.8 °F 67% 30.30 in 12.0 mi NNW 6.9 mph - N/A   Mostly Cloudy
7:23 AM 53.6 °F 42.8 °F 67% 30.32 in 10.0 mi North 6.9 mph - N/A   Mostly Cloudy
7:45 AM 53.6 °F 42.8 °F 67% 30.32 in 10.0 mi North 5.8 mph - N/A   Scattered Clouds
8:20 AM 55.4 °F 42.8 °F 63% 30.33 in 10.0 mi NE 3.5 mph - N/A   Clear
8:46 AM 57.2 °F 42.8 °F 59% 29.90 in 10.0 mi SSW 3.5 mph - N/A   Clear
9:22 AM 57.2 °F 42.8 °F 59% 30.33 in 8.0 mi SSW 3.5 mph - N/A   Clear
9:33 AM 60.8 °F 42.8 °F 52% 30.33 in 8.0 mi Calm Calm - N/A   Clear
9:43 AM 60.8 °F 42.8 °F 52% 30.33 in 8.0 mi Calm Calm - N/A   Clear
10:32 AM 64.4 °F 42.8 °F 45% 30.33 in 7.0 mi NE 4.6 mph - N/A   Clear
10:46 AM 64.4 °F 42.8 °F 45% 30.32 in 7.0 mi NE 4.6 mph - N/A   Partly Cloudy
11:26 AM 68.0 °F 42.8 °F 40% 30.31 in 7.0 mi ESE 3.5 mph - N/A   Partly Cloudy
11:43 AM 68.0 °F 42.8 °F 40% 29.86 in 7.0 mi Calm Calm - N/A   Partly Cloudy
12:23 PM 71.6 °F 41.0 °F 33% 30.27 in 7.0 mi East 4.6 mph - N/A   Scattered Clouds
12:44 PM 73.4 °F 39.2 °F 29% 30.25 in 6.0 mi SE 5.8 mph - N/A   Scattered Clouds
1:44 PM 75.2 °F 37.4 °F 25% 30.21 in 6.0 mi ESE 10.4 mph - N/A   Scattered Clouds
2:47 PM 73.4 °F 35.6 °F 25% 29.67 in 6.0 mi South 6.9 mph - N/A   Scattered Clouds
3:45 PM 75.2 °F 39.2 °F 27% 30.14 in 5.0 mi SSE 12.7 mph - N/A   Clear
3:47 PM 75.2 °F 39.2 °F 27% 30.14 in 5.0 mi SSE 12.7 mph - N/A   Scattered Clouds
4:44 PM 73.4 °F 39.2 °F 29% 30.14 in 5.0 mi SE 10.4 mph - N/A   Scattered Clouds
5:21 PM 69.8 °F 41.0 °F 35% 30.13 in 6.0 mi South 12.7 mph - N/A   Mostly Cloudy
5:50 PM 68.0 °F 42.8 °F 40% 29.69 in 6.0 mi South 15.0 mph - N/A Thunderstorm Thunderstorm
6:02 PM 66.2 °F 42.8 °F 43% 30.16 in 5.0 mi SW 26.5 mph - N/A Rain , Thunderstorm Thunderstorms and Rain
6:13 PM 55.4 °F 46.4 °F 72% 30.18 in 5.0 mi South 5.8 mph 23.0 mph N/A Rain , Thunderstorm Thunderstorms and Rain
6:23 PM 55.4 °F 46.4 °F 72% 30.17 in 6.0 mi South 8.1 mph - N/A Thunderstorm Thunderstorm
6:48 PM 59.0 °F 48.2 °F 67% 30.17 in 6.0 mi SSE 6.9 mph - N/A   Mostly Cloudy
6:51 PM 59.0 °F 48.2 °F 67% 30.17 in 6.0 mi SSE 6.9 mph - N/A   Mostly Cloudy
7:05 PM 60.8 °F 46.4 °F 59% 30.17 in 6.0 mi South 9.2 mph - N/A   Mostly Cloudy
7:09 PM 60.8 °F 46.4 °F 59% 30.17 in 6.0 mi South 9.2 mph - N/A   Mostly Cloudy
7:42 PM 60.8 °F 50.0 °F 68% 30.19 in 8.0 mi Calm Calm - N/A   Mostly Cloudy
8:46 PM 60.8 °F 50.0 °F 68% 29.78 in 8.0 mi ESE 6.9 mph - N/A   Mostly Cloudy
9:47 PM 60.8 °F 46.4 °F 59% 30.23 in 8.0 mi ESE 8.1 mph - N/A   Partly Cloudy
9:49 PM 60.8 °F 46.4 °F 59% 30.23 in 8.0 mi ESE 8.1 mph - N/A   Partly Cloudy
10:45 PM 60.8 °F 46.4 °F 59% 30.23 in 8.0 mi Calm Calm - N/A   Scattered Clouds
11:46 PM 59.0 °F 46.4 °F 63% 29.74 in 8.0 mi SSW 3.5 mph - N/A   Scattered Clouds